Bellingham, Washington, United States (98225)
Lat: 48.76N, Lon: 122.49W
Wx Zone: WAZ503
Local Info
Past Weather Observations for Saturday, October 18, 2014

NOTE: This archive is for the closest National Weather Service station to Bellingham. Information may differ from the station used for current weather conditions.

Click here for Long-term Archive

Time Weather Temperature Dewpoint Humidity Pressure Winds Precip Visibility
23:53
Partly Cloudy
57°F / 14°C 54°F / 12°C 88% 29.8 in
(1009 mb)
N 6.9 mph
(N 11 kph)
- 10SM
22:53
Partly Cloudy
57°F / 14°C 54°F / 12°C 88% 29.8 in
(1009 mb)
NNE 4.6 mph
(NNE 7 kph)
- 10SM
21:53
Partly Cloudy
57°F / 14°C 54°F / 12°C 88% 29.8 in
(1009 mb)
NE 5.8 mph
(NE 9 kph)
- 10SM
20:53
Mostly Cloudy
59°F / 15°C 55°F / 13°C 88% 29.83 in
(1010 mb)
Calm - 10SM
19:53
Mostly Cloudy
61°F / 16°C 55°F / 13°C 83% 29.86 in
(1011 mb)
NE 4.6 mph
(NE 7 kph)
- 10SM
18:53
Mostly Cloudy
57°F / 14°C 55°F / 13°C 94% 29.89 in
(1012 mb)
Calm - 10SM
17:53
Mostly Cloudy
61°F / 16°C 55°F / 13°C 83% 29.89 in
(1012 mb)
Calm - 10SM
16:53
Mostly Cloudy
63°F / 17°C 55°F / 13°C 77% 29.89 in
(1012 mb)
SSE 5.8 mph
(SSE 9 kph)
- 10SM
15:53
Overcast
63°F / 17°C 55°F / 13°C 77% 29.89 in
(1012 mb)
S 5.8 mph
(S 9 kph)
- 10SM
14:53
Overcast
63°F / 17°C 54°F / 12°C 73% 29.92 in
(1013 mb)
S 6.9 mph
(S 11 kph)
- 10SM
13:53
Overcast
63°F / 17°C 54°F / 12°C 73% 29.92 in
(1013 mb)
S 3.5 mph
(S 6 kph)
- 10SM
12:53
Overcast
63°F / 17°C 55°F / 13°C 77% 29.92 in
(1013 mb)
SSE 5.8 mph
(SSE 9 kph)
- 10SM
11:53
Mostly Cloudy
63°F / 17°C 55°F / 13°C 77% 29.95 in
(1014 mb)
SSE 9.2 mph
(SSE 15 kph)
- 10SM
11:17
Overcast
63°F / 17°C 55°F / 13°C 77% 29.92 in
(1013 mb)
Variable 4.6 mph
(Variable 7 kph)
- 10SM
10:53
Overcast
61°F / 16°C 55°F / 13°C 83% 29.92 in
(1013 mb)
S 6.9 mph
(S 11 kph)
- 10SM
09:53
Overcast
61°F / 16°C 55°F / 13°C 83% 29.92 in
(1013 mb)
Variable 6.9 mph
(Variable 11 kph)
- 10SM
08:53
Overcast
61°F / 16°C 55°F / 13°C 83% 29.89 in
(1012 mb)
SSE 6.9 mph
(SSE 11 kph)
- 10SM
08:12
Overcast
61°F / 16°C 55°F / 13°C 83% 29.89 in
(1012 mb)
SSE 6.9 mph
(SSE 11 kph)
- 10SM
07:53
Overcast
61°F / 16°C 55°F / 13°C 83% 29.89 in
(1012 mb)
S 5.8 mph
(S 9 kph)
- 10SM
06:53
Overcast
61°F / 16°C 55°F / 13°C 83% 29.86 in
(1011 mb)
S 8.1 mph
(S 13 kph)
- 10SM
06:31
Overcast
59°F / 15°C 55°F / 13°C 88% 29.86 in
(1011 mb)
SSE 5.8 mph
(SSE 9 kph)
- 9SM
05:53
Overcast
61°F / 16°C 55°F / 13°C 83% 29.89 in
(1012 mb)
SSE 8.1 mph
(SSE 13 kph)
- 10SM
04:53
Overcast
61°F / 16°C 55°F / 13°C 83% 29.86 in
(1011 mb)
SSE 9.2 mph
(SSE 15 kph)
- 10SM
04:27
Overcast
61°F / 16°C 54°F / 12°C 77% 29.86 in
(1011 mb)
SSE 11.5 mph
(SSE 19 kph)
- 10SM
03:53
Overcast
59°F / 15°C 54°F / 12°C 82% 29.86 in
(1011 mb)
SSE 10.4 mph
(SSE 17 kph)
- 10SM
02:53
Overcast
61°F / 16°C 54°F / 12°C 77% 29.83 in
(1010 mb)
SSE 11.5 mph
(SSE 19 kph)
- 10SM
01:53
Overcast
61°F / 16°C 54°F / 12°C 77% 29.83 in
(1010 mb)
S 8.1 mph
(S 13 kph)
- 10SM
00:53
Overcast
61°F / 16°C 54°F / 12°C 77% 29.83 in
(1010 mb)
S 9.2 mph
(S 15 kph)
- 10SM
Time Weather Temperature Dewpoint Humidity Pressure Winds Precip Visibility


Weather for websites

WeatherForYou.com, LLC is not responsible for any damages or problems caused by this service. Current weather conditions are obtained from the closest station including government and personal stations which may have varying degrees of accuracy. Weather forecasts are derived from the NOAA NDFD. Like all things, this site belongs to Jesus Christ... He just trusts me to maintain it. If you have any questions or comments email webmaster@weatherforyou.com

Copyright © 2014, WeatherForYou.com LLC. All rights reserved.